Tanana, AK

7:25 AM AKST on December 07, 2016 (GMT -0900)
Calhoun Memorial

Weather History for PATA - October, 2012

Change the Weather History Date:

Sunday, October 21, 2012

  Actual Average Record
Temperature  
Mean Temperature 16 °F -  
Max Temperature 21 °F 24 °F 43 °F (2013)
Min Temperature 9 °F 8 °F -13 °F (1958)
Degree Days  
Heating Degree Days 50    
Moisture  
Dew Point 11 °F    
Average Humidity 82    
Maximum Humidity 92    
Minimum Humidity 74    
Precipitation  
Precipitation 0.00 in - - ()
Snow  
Snow 0.00 in - - ()
Snow Depth 2.00 in    
Sea Level Pressure  
Sea Level Pressure 30.55 in    
Wind  
Wind Speed 5 mph (NE)    
Max Wind Speed 14 mph    
Max Gust Speed -    
Visibility 10 miles    
Events Snow    
Averages and records for this station are not official NWS values.
T = Trace of Precipitation, MM = Missing Value Source: NWS Daily Summary

Daily Weather History Graph

Daily Weather History Graph

Search for Another Location

Airport or City:

Trip Planner

Search our weather history database for the weather conditions in past years. The results will help you decide how hot, cold, wet, or windy it might be!

Date:

Astronomy

Oct. 21, 2012 Rise Set
Actual Time 9:23 AM AKDT 6:20 PM AKDT
Civil Twilight 8:31 AM AKDT 7:13 PM AKDT
Nautical Twilight 7:33 AM AKDT 8:10 PM AKDT
Astronomical Twilight 6:35 AM AKDT 9:08 PM AKDT
Moon 4:37 PM AKDT (10/21) 11:49 PM AKDT (10/21)
Length of Visible Light 10h 41m
Length of Day
8h 57m
Waxing Crescent, 47% of the Moon is Illuminated
Oct 21
Waxing Crescent
Oct 21
First Quarter
Oct 29
Full
Nov 6
Last Quarter
Nov 13
New

Hourly Weather History & Observations

Time (AKDT) Temp. Windchill Dew Point Humidity Pressure Visibility Wind Dir Wind Speed Gust Speed Precip Events Conditions
12:38 AM 10.4 °F - 8.6 °F 92% 30.63 in 10.0 mi Calm Calm - N/A   Overcast
12:52 AM 10.9 °F - 8.1 °F 88% 30.65 in 10.0 mi Calm Calm - N/A   Overcast
1:21 AM 10.4 °F 2.2 °F 8.6 °F 92% 30.62 in 10.0 mi NE 4.6 mph - N/A   Overcast
1:52 AM 12.9 °F - 9.0 °F 84% 30.65 in 10.0 mi Calm Calm - N/A   Overcast
2:52 AM 12.9 °F 6.9 °F 9.0 °F 84% 30.65 in 10.0 mi NE 3.5 mph - N/A   Overcast
3:52 AM 14.0 °F 8.2 °F 10.9 °F 88% 30.64 in 10.0 mi NNE 3.5 mph - N/A   Overcast
4:52 AM 14.0 °F 8.2 °F 10.9 °F 88% 30.61 in 10.0 mi NNE 3.5 mph - N/A   Overcast
5:52 AM 17.1 °F 11.7 °F 14.0 °F 88% 30.61 in 10.0 mi East 3.5 mph - N/A   Overcast
6:52 AM 15.1 °F 6.4 °F 12.0 °F 88% 30.62 in 10.0 mi North 5.8 mph - N/A   Overcast
7:52 AM 12.9 °F 5.2 °F 9.0 °F 84% 30.61 in 10.0 mi North 4.6 mph - N/A   Overcast
8:31 AM 12.2 °F 0.7 °F 8.6 °F 85% 30.57 in 10.0 mi NNE 8.1 mph - N/A   Overcast
8:52 AM 14.0 °F 5.1 °F 10.0 °F 84% 30.60 in 10.0 mi North 5.8 mph - N/A   Overcast
9:52 AM 12.9 °F 2.6 °F 9.0 °F 84% 30.59 in 10.0 mi NNE 6.9 mph - N/A   Overcast
10:03 AM 12.2 °F 0.7 °F 8.6 °F 85% 30.56 in 10.0 mi NNE 8.1 mph - N/A   Overcast
10:52 AM 10.9 °F -0.8 °F 7.0 °F 84% 30.58 in 10.0 mi NNE 8.1 mph - N/A   Mostly Cloudy
11:52 AM 18.0 °F 9.8 °F 12.0 °F 78% 30.56 in 10.0 mi NNE 5.8 mph - N/A   Mostly Cloudy
12:15 PM 19.4 °F 10.4 °F 12.2 °F 74% 30.53 in 10.0 mi ENE 6.9 mph - N/A   Scattered Clouds
12:52 PM 19.9 °F 7.9 °F 14.0 °F 78% 30.54 in 10.0 mi East 11.5 mph - 0.00 in   Partly Cloudy
1:52 PM 21.9 °F 12.5 °F 15.1 °F 75% 30.53 in 10.0 mi ENE 8.1 mph - N/A   Partly Cloudy
2:52 PM 21.9 °F 10.4 °F 15.1 °F 75% 30.51 in 10.0 mi ENE 11.5 mph - 0.00 in   Partly Cloudy
3:52 PM 21.9 °F 11.7 °F 15.1 °F 75% 30.49 in 10.0 mi ENE 9.2 mph - N/A   Partly Cloudy
4:52 PM 21.0 °F 9.9 °F 14.0 °F 74% 30.48 in 10.0 mi East 10.4 mph - N/A   Partly Cloudy
5:52 PM 19.0 °F 9.0 °F 14.0 °F 81% 30.47 in 10.0 mi East 8.1 mph - N/A   Partly Cloudy
6:52 PM 18.0 °F 4.2 °F 12.0 °F 78% 30.46 in 10.0 mi East 13.8 mph - N/A   Partly Cloudy
7:52 PM 17.1 °F 5.0 °F 10.9 °F 77% 30.46 in 10.0 mi East 10.4 mph - N/A   Partly Cloudy
8:52 PM 16.0 °F 2.9 °F 10.9 °F 81% 30.46 in 9.0 mi ENE 11.5 mph - 0.00 in Snow Light Snow
9:52 PM 14.0 °F 8.2 °F 9.0 °F 80% 30.45 in 10.0 mi ENE 3.5 mph - 0.00 in   Clear
10:52 PM 10.9 °F 4.7 °F 6.1 °F 81% 30.45 in 10.0 mi Variable 3.5 mph - 0.00 in   Clear
11:52 PM 9.0 °F 2.4 °F 5.0 °F 84% 30.45 in 10.0 mi North 3.5 mph - N/A   Clear